Regional Weather Roundup
Issued by NWS Portland, ME

Home | Current Version | Previous Version | Text Only | Print | Product List | Glossary On
Versions: 1 2 3 4 5 6 7 8 9 10 11 12 13 14 15 16 17 18 19 20 21 22 23 24 25 26 27 28 29 30 31 32 33 34 35 36 37 38 39 40 41 42 43 44 45 46 47 48 49 50
000
ASUS41 KGYX 230210
RWRGYX
WEATHER ROUNDUP FOR MAINE AND NEW HAMPSHIRE
NATIONAL WEATHER SERVICE GRAY ME
900 PM EST MON DEC 22 2014

MEZ002-005-006-010-012-015-018-020-021-024-026-027-029-230300-
MAINE

CITY           SKY/WX    TMP DP  RH WIND       PRES   REMARKS
PORTLAND       LGT RAIN  36  32  85 N6        30.37S
SANFORD        CLOUDY    34  30  86 N3        30.35F
BAR HARBOR     CLOUDY    34  34 100 N3        30.40F
WISCASSET      CLOUDY    35  34  96 CALM      30.39F
ROCKLAND       CLOUDY    37  36  93 NE7       30.37F
FRYEBURG       CLOUDY    32  26  78 CALM      30.37S
LEWISTONAUBURN CLOUDY    34  27  75 N5        30.37S
AUGUSTA        CLOUDY    32  29  88 N3        30.38S
WATERVILLE     CLOUDY    32  27  80 N6        30.36R
BANGOR         CLOUDY    32  29  88 CALM      30.40F
GREENVILLE       N/A     26  24  92 CALM      30.31F
MILLINOCKET    CLOUDY    28  27  96 CALM      30.41F
HOULTON        CLOUDY    28  24  85 CALM      30.40F
PRESQUE ISLE   CLOUDY    27  21  80 CALM      30.39S
FRENCHVILLE    CLOUDY    22  21  96 SE7       30.34F
CARIBOU        CLOUDY    26  23  88 CALM      30.38F
$$

NHZ002-005-008-009-011-012-014-230300-
NEW HAMPSHIRE

CITY           SKY/WX    TMP DP  RH WIND       PRES   REMARKS
PORTSMOUTH     LGT RAIN  35  33  92 N5        30.33F FOG
ROCHESTER      LGT RAIN  33  31  92 N5        30.34F FOG
NASHUA         MOCLDY    36  36 100 CALM      30.34F
MANCHESTER     LGT RAIN  35  33  92 NE8       30.31F
CONCORD        CLOUDY    34  32  92 N5        30.33F
LACONIA        CLOUDY    34  28  80 E10       30.32F
PLYMOUTH       LGT SNOW  32  32 100 CALM      30.33F
BERLIN         CLOUDY    31  26  82 SE5       30.31F
WHITEFIELD     MOCLDY    29  25  85 CALM      30.29F
JAFFREY        CLOUDY    32  31  96 CALM      30.29S FOG
KEENE          CLOUDY    36  30  80 CALM      30.30S
LEBANON        CLOUDY    33  29  85 NE3       30.29F
MT WASHINGTON  FOG       16  16 100 S25         N/A  VSB 1/16WCI  -3
$$

VTZ005-007-008-230300-
VERMONT

CITY           SKY/WX    TMP DP  RH WIND       PRES   REMARKS
ST JOHNSBURY     N/A     32  27  81 MISG      30.29F
MONTPELIER     LGT SNOW  31  29  92 SW3       30.31F FOG
BURLINGTON     CLOUDY    26  21  81 CALM      30.29S FOG
$$

MAZ007-012-024-CTZ003-RIZ002-NYZ038-NYZ072-230300-
SOUTHERN NEW ENGLAND AND NY

CITY           SKY/WX    TMP DP  RH WIND       PRES   REMARKS
BOSTON         MOCLDY    41  37  86 E7        30.32F
WORCESTER      FOG       34  34 100 NE6       30.27S VSB 1/4
NANTUCKET      CLOUDY    45  38  76 E10       30.28F
PROVIDENCE     CLOUDY    40  38  93 NE7       30.29F
HARTFORD       CLOUDY    40  34  79 N5        30.27F
ALBANY         CLOUDY    34  27  75 CALM      30.25F
NEW YORK CITY  LGT RAIN  45  40  82 NE13      30.20F
$$

ANZ081-ANZ082-ANZ150-NHZ014-MEZ023>029-230300-
COASTAL MARINE OBSERVATIONS

STATION/POSITION TIME  TEMP    WIND        PRES    WAVE
                       AIR SEA DIR/SP/G            HT/PER
                 (UTC) (F)     (DEG/KT/KT) (MB)    (FT/S)
MOUNT DESERT ROC 0200   41                 1028.5F
MATINICUS ROCK   0200          130/ 21/ 23 1027.9F
PORTLAND WX BUOY 0150   40 44   60/ 12/ 14 1027.8R   3/ 7
WELLS            0100   34 38   10/  7/  8 1027.4R
ISLE OF SHOALS   0200   44     130/ 18/ 19 1026.1F
JEFFREYS LEDGE   0121      49                N/A     5/ 8
CASHES LEDGE BUO 0150   43 48  110/ 17/ 21 1027.6F   5/ 6
$$

.............KEY..............
   WCI - WIND CHILL
   TC  - TEMPERATURE IN CELSIUS
   VSB - VISIBILITY IN MILES
   HX  - HEAT INDEX
   FAIR- INDICATES FEW OR NO CLOUDS BELOW 12,000 FT, WITH NO
         SIGNIFICANT WEATHER AND/OR OBSTRUCTIONS TO VISIBILITY.




USA.gov is the U.S. government's official web portal to all federal, state and local government web resources and services.